Girona, Spain

7:36 PM CEST on March 28, 2017 (GMT +0200)
Girona

Weather History for LEGE - December, 2012

Change the Weather History Date:

Saturday, December 29, 2012

  Actual Average Record
Temperature  
Mean Temperature 48 °F -  
Max Temperature 63 °F 55 °F 66 °F (2015)
Min Temperature 32 °F 35 °F 24 °F (2005)
Degree Days  
Heating Degree Days 18    
Moisture  
Dew Point 41 °F    
Average Humidity 85    
Maximum Humidity 100    
Minimum Humidity 42    
Precipitation  
Precipitation 0.00 in 0.08 in - ()
Sea Level Pressure  
Sea Level Pressure 30.18 in    
Wind  
Wind Speed 3 mph ()    
Max Wind Speed 18 mph    
Max Gust Speed -    
Visibility 3.4 miles    
Events Fog    
Averages and records for this station are not official NWS values.
T = Trace of Precipitation, MM = Missing Value Source: Averaged Metar Reports

Daily Weather History Graph

Daily Weather History Graph

Search for Another Location

Airport or City:

Trip Planner

Search our weather history database for the weather conditions in past years. The results will help you decide how hot, cold, wet, or windy it might be!

Date:

Astronomy

Dec. 29, 2012 Rise Set
Actual Time 8:16 AM CET 5:26 PM CET
Civil Twilight 7:44 AM CET 5:57 PM CET
Nautical Twilight 7:09 AM CET 6:32 PM CET
Astronomical Twilight 6:35 AM CET 7:06 PM CET
Moon 6:45 PM CET (12/29) 8:38 AM CET (12/29)
Length of Visible Light 10h 13m
Length of Day
9h 09m
Full, 99% of the Moon is Illuminated
Dec 29
Full
Jan 5
Last Quarter
Jan 11
New
Jan 19
First Quarter
Jan 27
Full

Hourly Weather History & Observations

Time (CET) Temp. Windchill Dew Point Humidity Pressure Visibility Wind Dir Wind Speed Gust Speed Precip Events Conditions
12:00 AM 41.0 °F - 39.2 °F 93% 30.36 in - Calm Calm - N/A   Clear
12:30 AM 41.0 °F - 41.0 °F 100% 30.33 in - Calm Calm - N/A   Clear
1:00 AM 42 °F - 39 °F 85% 30.33 in 12 mi Calm Calm - -   Clear
1:30 AM 39.2 °F - 39.2 °F 100% 30.33 in - Variable 1.2 mph - N/A   Clear
2:00 AM 39.2 °F - 39.2 °F 100% 30.30 in - Calm Calm - N/A   Clear
2:30 AM 37.4 °F - 37.4 °F 100% 30.30 in - Calm Calm - N/A   Clear
3:00 AM 37.4 °F 34.9 °F 37.4 °F 100% 30.30 in - West 3.5 mph - N/A   Clear
3:30 AM 41.0 °F - 41.0 °F 100% 30.27 in - West 2.3 mph - N/A   Clear
4:00 AM 37.4 °F - 37.4 °F 100% 30.27 in - Calm Calm - N/A   Clear
4:30 AM 35.6 °F - 35.6 °F 100% 30.24 in 0.1 mi Calm Calm - N/A Fog Fog
5:00 AM 35.6 °F - 35.6 °F 100% 30.24 in 0.1 mi Calm Calm - N/A Fog Fog
5:30 AM 33.8 °F - 33.8 °F 100% 30.24 in 0.1 mi Calm Calm - N/A Fog Fog
6:00 AM 33.8 °F - 33.8 °F 100% 30.24 in 0.1 mi Variable 1.2 mph - N/A Fog Fog
6:30 AM 33.8 °F - 33.8 °F 100% 30.21 in 0.4 mi Calm Calm - N/A Fog Fog
7:00 AM 35 °F - 33 °F 89% 30.23 in 0 mi Calm Calm - - Fog Heavy Fog
7:00 AM 33.8 °F - 33.8 °F 100% 30.21 in 0.9 mi Calm Calm - N/A Fog Patches of Fog
7:30 AM 32.0 °F - 32.0 °F 100% 30.21 in 3.1 mi Calm Calm - N/A   Mist
8:00 AM 32.0 °F - 32.0 °F 100% 30.21 in 3.1 mi Calm Calm - N/A   Mist
8:30 AM 32.0 °F - 32.0 °F 100% 30.21 in 6.2 mi Calm Calm - N/A Fog Patches of Fog
9:00 AM 33.8 °F - 33.8 °F 100% 30.21 in 6.2 mi Calm Calm - N/A Fog Unknown
9:30 AM 37.4 °F - 37.4 °F 100% 30.21 in - Calm Calm - N/A   Clear
10:00 AM 41.0 °F - 41.0 °F 100% 30.21 in - Calm Calm - N/A   Clear
10:30 AM 42.8 °F 41.1 °F 42.8 °F 100% 30.21 in - South 3.5 mph - N/A   Clear
11:00 AM 46.4 °F - 41.0 °F 81% 30.21 in - Variable 1.2 mph - N/A   Clear
11:30 AM 50.0 °F - 42.8 °F 76% 30.18 in - Variable 1.2 mph - N/A   Clear
12:00 PM 53.6 °F - 42.8 °F 67% 30.18 in - Variable 2.3 mph - N/A   Clear
12:09 PM 57.2 °F - 42.8 °F 59% 30.15 in - South 8.1 mph - N/A   Clear
12:30 PM 57.2 °F - 42.8 °F 59% 30.15 in - South 13.8 mph - N/A   Clear
1:00 PM 62 °F - 45 °F 42% 30.12 in 34 mi South 12.7 mph - -   Clear
1:00 PM 59.0 °F - 44.6 °F 59% 30.12 in - South 12.7 mph - N/A   Clear
1:30 PM 60.8 °F - 44.6 °F 55% 30.12 in - South 15.0 mph - N/A   Clear
2:00 PM 60.8 °F - 46.4 °F 59% 30.09 in - SSW 18.4 mph - N/A   Clear
2:30 PM 60.8 °F - 46.4 °F 59% 30.09 in - South 15.0 mph - N/A   Clear
3:00 PM 60.8 °F - 46.4 °F 59% 30.06 in - South 12.7 mph - N/A   Clear
3:30 PM 59.0 °F - 48.2 °F 67% 30.06 in - South 16.1 mph - N/A   Clear
4:00 PM 59.0 °F - 48.2 °F 67% 30.06 in - SSW 15.0 mph - N/A   Clear
4:30 PM 57.2 °F - 48.2 °F 72% 30.06 in - SSW 16.1 mph - N/A   Clear
5:30 PM 53.6 °F - 46.4 °F 77% 30.04 in - SSW 17.3 mph - N/A   Clear
6:00 PM 51.8 °F - 48.2 °F 88% 30.04 in - South 17.3 mph - N/A   Clear
7:00 PM 52 °F - 48 °F 81% 30.07 in 12 mi SW 4.6 mph - -  
7:00 PM 51.8 °F - 48.2 °F 88% 30.06 in - SSW 8.1 mph - N/A   Clear
7:30 PM 51.8 °F - 46.4 °F 82% 30.12 in - North 8.1 mph - N/A   Clear
8:00 PM 50.0 °F - 44.6 °F 82% 30.12 in - NE 9.2 mph - N/A   Clear
8:30 PM 50.0 °F - 44.6 °F 82% 30.12 in - ENE 5.8 mph - N/A   Clear
9:00 PM 48.2 °F - 42.8 °F 82% 30.15 in - Variable 1.2 mph - N/A   Clear
9:30 PM 50.0 °F - 42.8 °F 76% 30.15 in - North 3.5 mph - N/A   Clear
10:00 PM 46.4 °F 45.2 °F 41.0 °F 81% 30.15 in - North 3.5 mph - N/A   Clear
10:30 PM 44.6 °F - 39.2 °F 81% 30.15 in - NNW 1.2 mph - N/A   Clear
11:00 PM 44.6 °F 43.1 °F 41.0 °F 87% 30.15 in - WNW 3.5 mph - N/A   Clear
11:30 PM 42.8 °F - 42.8 °F 100% 30.18 in - WNW 2.3 mph - N/A   Clear